Location: Caltech
(34.1382°N, 118.1253°W)
Time: 02:15:58
(UTC-07:00)

Iridium 59 - Visible Passes

Search period start: 29 March 2017 00:00
Search period end: 08 April 2017 00:00
Orbit: 776 x 779 km, 86.4° (Epoch: 27 March)

Date Brightness Start Highest point End Pass type
(mag) Time Alt. Az. Time Alt. Az. Time Alt. Az.
29 Mar 6.0 20:40:41 10° NNE 20:44:19 27° ENE 20:44:19 27° ENE visible
29 Mar 7.0 22:21:29 10° NNW 22:24:50 24° WNW 22:24:50 24° WNW visible
30 Mar 6.6 20:08:28 10° NE 20:11:24 15° ENE 20:11:28 15° ENE visible
30 Mar 5.8 21:47:21 10° NNW 21:51:59 49° WNW 21:51:59 49° WNW visible
31 Mar 4.8 21:13:41 10° N 21:18:56 84° E 21:19:10 80° SE visible
01 Apr 5.3 20:40:24 10° NNE 20:45:22 42° E 20:46:25 38° ESE visible
01 Apr 7.4 22:22:18 10° NW 22:25:39 17° W 22:26:56 16° W visible
02 Apr 6.2 20:07:38 10° NNE 20:11:40 22° E 20:13:42 18° ESE visible
02 Apr 6.5 21:47:44 10° NNW 21:52:23 33° W 21:54:13 26° WSW visible
03 Apr 5.3 21:13:49 10° N 21:18:59 65° W 21:21:35 29° SSW visible
04 Apr 5.0 20:40:18 10° N 20:45:30 64° E 20:49:01 21° SSE visible
04 Apr 7.9 22:23:56 10° WNW 22:25:32 11° WNW 22:27:07 10° W visible
05 Apr 5.7 20:07:12 10° NNE 20:11:53 33° E 20:16:32 10° SSE visible
05 Apr 7.2 21:48:21 10° NNW 21:52:20 23° W 21:56:19 10° SW visible
06 Apr 6.1 21:14:06 10° NNW 21:19:01 43° W 21:23:55 10° SSW visible
07 Apr 5.0 20:40:21 10° N 20:45:35 85° W 20:50:48 10° S visible
